UAL1234 KLGA-KORD

Flight info

Callsign UAL1234
Flight time 2h 2m
Altitude 36000
Route COATE Q436 KAYYS WYNDE3
Aircraft A320/M-SDE3FGHIRWY/LB1

Departure

Time 2026-05-05 20:26
Airport LaGuardia Airport (KLGA)

Arrival

Time 2026-05-05 22:28
Airport Chicago O'Hare International Airport (KORD)
Time Latitude Longitude Altitude Speed Heading
2026-05-05 20:05 40.77345 -73.88338 18 ft 0 kts 270°
2026-05-05 20:17 40.77346 -73.88328 16 ft 4 kts 270°
2026-05-05 20:18 40.77346 -73.88298 18 ft 2 kts 270°
2026-05-05 20:18 40.77349 -73.88266 19 ft 4 kts 251°
2026-05-05 20:18 40.77357 -73.88245 18 ft 4 kts 322°
2026-05-05 20:18 40.77346 -73.88243 19 ft 4 kts 352°
2026-05-05 20:19 40.77340 -73.88241 21 ft 0 kts 352°
2026-05-05 20:21 40.77340 -73.88242 21 ft 0 kts 352°
2026-05-05 20:21 40.77356 -73.88244 18 ft 4 kts 352°
2026-05-05 20:21 40.77399 -73.88251 17 ft 8 kts 357°
2026-05-05 20:21 40.77455 -73.88218 18 ft 10 kts 32°
2026-05-05 20:22 40.77520 -73.88163 16 ft 12 kts 32°
2026-05-05 20:22 40.77571 -73.88090 18 ft 11 kts 84°
2026-05-05 20:22 40.77590 -73.88006 19 ft 10 kts 36°
2026-05-05 20:22 40.77655 -73.87952 18 ft 12 kts 32°
2026-05-05 20:23 40.77731 -73.87889 19 ft 13 kts 32°
2026-05-05 20:23 40.77811 -73.87823 19 ft 14 kts 32°
2026-05-05 20:23 40.77903 -73.87747 17 ft 17 kts 32°
2026-05-05 20:23 40.77962 -73.87710 15 ft 9 kts 353°
2026-05-05 20:24 40.78003 -73.87772 17 ft 10 kts 302°
2026-05-05 20:24 40.78057 -73.87833 17 ft 12 kts 347°
2026-05-05 20:24 40.78139 -73.87856 17 ft 12 kts 347°
2026-05-05 20:24 40.78205 -73.87851 10 ft 9 kts 38°
2026-05-05 20:25 40.78192 -73.87768 7 ft 7 kts 123°
2026-05-05 20:25 40.78120 -73.87621 7 ft 48 kts 123°
2026-05-05 20:25 40.77821 -73.86996 17 ft 109 kts 122°
2026-05-05 20:25 40.77335 -73.85976 50 ft 148 kts 126°
2026-05-05 20:26 40.76785 -73.84824 575 ft 148 kts 126°
2026-05-05 20:26 40.76237 -73.83675 1138 ft 149 kts 131°
2026-05-05 20:26 40.75690 -73.82538 1672 ft 143 kts 136°
2026-05-05 20:26 40.74896 -73.81794 1820 ft 148 kts 177°
2026-05-05 20:27 40.73846 -73.81941 2022 ft 162 kts 208°
2026-05-05 20:27 40.73014 -73.83039 2237 ft 186 kts 244°
2026-05-05 20:27 40.72983 -73.84869 2442 ft 225 kts 282°
2026-05-05 20:27 40.73697 -73.86854 2883 ft 251 kts 294°
2026-05-05 20:28 40.74658 -73.88817 3700 ft 257 kts 297°
2026-05-05 20:28 40.75688 -73.90767 4580 ft 261 kts 298°
2026-05-05 20:28 40.76730 -73.92738 5470 ft 263 kts 298°
2026-05-05 20:28 40.77762 -73.94735 6331 ft 265 kts 297°
2026-05-05 20:29 40.78782 -73.96755 7154 ft 264 kts 297°
2026-05-05 20:29 40.79786 -73.98782 8030 ft 263 kts 296°
2026-05-05 20:29 40.80780 -74.00812 8890 ft 264 kts 297°
2026-05-05 20:29 40.81775 -74.02862 9692 ft 266 kts 297°
2026-05-05 20:30 40.82775 -74.04932 10329 ft 273 kts 297°
2026-05-05 20:30 40.83827 -74.07136 10505 ft 295 kts 297°
2026-05-05 20:30 40.84959 -74.09511 10733 ft 313 kts 297°
2026-05-05 20:30 40.86140 -74.11969 11314 ft 319 kts 298°
2026-05-05 20:31 40.87344 -74.14452 11958 ft 323 kts 298°
2026-05-05 20:31 40.88558 -74.16956 12616 ft 325 kts 298°
2026-05-05 20:31 40.89783 -74.19491 13310 ft 327 kts 298°
2026-05-05 20:31 40.91007 -74.22029 13994 ft 328 kts 298°
2026-05-05 20:32 40.92237 -74.24587 14565 ft 332 kts 297°
2026-05-05 20:32 40.93480 -74.27177 15098 ft 336 kts 298°
2026-05-05 20:32 40.94310 -74.28913 15449 ft 338 kts 298°
2026-05-05 20:32 40.96001 -74.32456 16147 ft 343 kts 298°
2026-05-05 20:33 40.96850 -74.34234 16483 ft 346 kts 298°
2026-05-05 20:33 40.98144 -74.36942 17029 ft 350 kts 298°
2026-05-05 20:33 40.99447 -74.39672 17608 ft 353 kts 298°
2026-05-05 20:33 41.00765 -74.42431 18137 ft 357 kts 298°
2026-05-05 20:34 41.02099 -74.45228 18615 ft 360 kts 298°
2026-05-05 20:34 41.03876 -74.48966 19284 ft 364 kts 298°
2026-05-05 20:34 41.05229 -74.51816 19803 ft 367 kts 298°
2026-05-05 20:34 41.06150 -74.53755 20156 ft 369 kts 298°
2026-05-05 20:35 41.07522 -74.56645 20668 ft 372 kts 298°
2026-05-05 20:35 41.08904 -74.59554 21166 ft 375 kts 298°
2026-05-05 20:35 41.10299 -74.62488 21642 ft 377 kts 298°
2026-05-05 20:35 41.11701 -74.65443 22113 ft 380 kts 298°
2026-05-05 20:36 41.13095 -74.68385 22568 ft 383 kts 298°
2026-05-05 20:36 41.14516 -74.71436 23028 ft 385 kts 297°
2026-05-05 20:36 41.15881 -74.74509 23456 ft 387 kts 296°
2026-05-05 20:36 41.17206 -74.77576 23823 ft 389 kts 296°
2026-05-05 20:37 41.18545 -74.80708 24226 ft 391 kts 296°
2026-05-05 20:37 41.19893 -74.83856 24608 ft 393 kts 296°
2026-05-05 20:37 41.21248 -74.87007 24991 ft 394 kts 297°
2026-05-05 20:37 41.22615 -74.90166 25362 ft 395 kts 297°
2026-05-05 20:38 41.23987 -74.93342 25724 ft 397 kts 297°
2026-05-05 20:38 41.25360 -74.96524 26089 ft 398 kts 297°
2026-05-05 20:38 41.26741 -74.99722 26455 ft 399 kts 297°
2026-05-05 20:38 41.28127 -75.02925 26831 ft 401 kts 297°
2026-05-05 20:39 41.29519 -75.06145 27204 ft 402 kts 297°
2026-05-05 20:39 41.30914 -75.09371 27562 ft 403 kts 298°
2026-05-05 20:39 41.32314 -75.12607 27940 ft 404 kts 297°
2026-05-05 20:39 41.33719 -75.15858 28312 ft 406 kts 297°
2026-05-05 20:40 41.35122 -75.19117 28663 ft 407 kts 298°
2026-05-05 20:40 41.36529 -75.22391 29043 ft 407 kts 298°
2026-05-05 20:40 41.37926 -75.25650 29549 ft 404 kts 298°
2026-05-05 20:40 41.39312 -75.28891 30054 ft 402 kts 298°
2026-05-05 20:41 41.40691 -75.32116 30494 ft 399 kts 298°
2026-05-05 20:41 41.42058 -75.35316 30946 ft 396 kts 297°
2026-05-05 20:41 41.43414 -75.38494 31368 ft 393 kts 298°
2026-05-05 20:41 41.44766 -75.41657 31723 ft 392 kts 298°
2026-05-05 20:42 41.46108 -75.44805 31807 ft 390 kts 297°
2026-05-05 20:42 41.48454 -75.51281 31800 ft 387 kts 290°
2026-05-05 20:43 41.50376 -75.57961 31802 ft 384 kts 289°
2026-05-05 20:43 41.52274 -75.64568 31799 ft 384 kts 289°
2026-05-05 20:44 41.54173 -75.71221 31794 ft 383 kts 289°
2026-05-05 20:44 41.56073 -75.77870 31792 ft 383 kts 289°
2026-05-05 20:45 41.58917 -75.87834 31797 ft 382 kts 289°
2026-05-05 20:45 41.60802 -75.94469 31793 ft 382 kts 289°
2026-05-05 20:46 41.62680 -76.01099 31794 ft 381 kts 289°
2026-05-05 20:46 41.64549 -76.07728 31787 ft 381 kts 289°
2026-05-05 20:47 41.66412 -76.14352 31788 ft 381 kts 289°
2026-05-05 20:47 41.68273 -76.20976 31805 ft 380 kts 288°
2026-05-05 20:48 41.70124 -76.27596 31790 ft 379 kts 288°
2026-05-05 20:48 41.71969 -76.34211 31785 ft 379 kts 288°
2026-05-05 20:49 41.73815 -76.40822 31777 ft 379 kts 288°
2026-05-05 20:49 41.75653 -76.47434 31773 ft 379 kts 288°
2026-05-05 20:50 41.77485 -76.54056 31775 ft 379 kts 288°
2026-05-05 20:50 41.79325 -76.60680 31768 ft 379 kts 288°
2026-05-05 20:51 41.81159 -76.67313 31771 ft 379 kts 288°
2026-05-05 20:51 41.82983 -76.73949 31771 ft 380 kts 288°
2026-05-05 20:52 41.84804 -76.80594 31779 ft 380 kts 288°
2026-05-05 20:52 41.86619 -76.87235 31810 ft 379 kts 287°
2026-05-05 20:53 41.88430 -76.93867 31819 ft 378 kts 287°
2026-05-05 20:53 41.90217 -77.00432 31812 ft 377 kts 287°
2026-05-05 20:54 41.92003 -77.07046 31810 ft 376 kts 287°
2026-05-05 20:54 41.93785 -77.13649 31809 ft 376 kts 287°
2026-05-05 20:55 41.95561 -77.20254 31801 ft 376 kts 287°
2026-05-05 20:55 41.97340 -77.26866 31794 ft 377 kts 286°
2026-05-05 20:56 41.99117 -77.33508 31783 ft 378 kts 286°
2026-05-05 20:56 42.00893 -77.40171 31787 ft 379 kts 286°
2026-05-05 20:57 42.02695 -77.46841 31785 ft 380 kts 287°
2026-05-05 20:57 42.04519 -77.53507 31795 ft 380 kts 287°
2026-05-05 20:58 42.06335 -77.60177 31801 ft 380 kts 286°
2026-05-05 20:58 42.08146 -77.66870 31794 ft 381 kts 286°
2026-05-05 20:59 42.09959 -77.73588 31790 ft 382 kts 285°
2026-05-05 20:59 42.11777 -77.80321 31793 ft 383 kts 285°
2026-05-05 21:00 42.13591 -77.87076 31819 ft 384 kts 285°
2026-05-05 21:00 42.15397 -77.93847 31822 ft 384 kts 285°
2026-05-05 21:01 42.17193 -78.00580 31847 ft 384 kts 285°
2026-05-05 21:01 42.19000 -78.07359 31828 ft 384 kts 285°
2026-05-05 21:02 42.20802 -78.14146 31830 ft 384 kts 285°
2026-05-05 21:02 42.22595 -78.20930 31831 ft 384 kts 285°
2026-05-05 21:03 42.24384 -78.27731 31837 ft 385 kts 284°
2026-05-05 21:03 42.26118 -78.34548 31836 ft 384 kts 284°
2026-05-05 21:04 42.27800 -78.41383 31834 ft 384 kts 284°
2026-05-05 21:04 42.29478 -78.48218 31831 ft 383 kts 284°
2026-05-05 21:05 42.31164 -78.55057 31830 ft 384 kts 284°
2026-05-05 21:05 42.32848 -78.61901 31828 ft 384 kts 284°
2026-05-05 21:06 42.34531 -78.68746 31836 ft 384 kts 283°
2026-05-05 21:06 42.36211 -78.75610 31821 ft 384 kts 283°
2026-05-05 21:07 42.37871 -78.82430 31817 ft 384 kts 283°
2026-05-05 21:07 42.39538 -78.89294 31830 ft 384 kts 283°
2026-05-05 21:08 42.41215 -78.96161 31835 ft 385 kts 283°
2026-05-05 21:08 42.42910 -79.03036 31845 ft 385 kts 283°
2026-05-05 21:09 42.44593 -79.09909 31868 ft 384 kts 283°
2026-05-05 21:09 42.46266 -79.16767 31875 ft 383 kts 283°
2026-05-05 21:10 42.47930 -79.23619 31874 ft 383 kts 283°
2026-05-05 21:10 42.49589 -79.30468 31872 ft 382 kts 283°
2026-05-05 21:11 42.51245 -79.37312 31870 ft 382 kts 283°
2026-05-05 21:11 42.52895 -79.44151 31891 ft 381 kts 283°
2026-05-05 21:12 42.54530 -79.50951 31886 ft 374 kts 282°
2026-05-05 21:12 42.56126 -79.57614 31887 ft 370 kts 282°
2026-05-05 21:13 42.57705 -79.64246 31879 ft 369 kts 282°
2026-05-05 21:13 42.59285 -79.70871 31884 ft 369 kts 282°
2026-05-05 21:14 42.60841 -79.77498 31886 ft 367 kts 279°
2026-05-05 21:14 42.61418 -79.84292 31901 ft 362 kts 270°
2026-05-05 21:15 42.61715 -79.91056 31894 ft 361 kts 270°
2026-05-05 21:15 42.62022 -79.97852 31888 ft 360 kts 270°
2026-05-05 21:16 42.62323 -80.04636 31882 ft 360 kts 270°
2026-05-05 21:16 42.62613 -80.11420 31880 ft 360 kts 270°
2026-05-05 21:17 42.62900 -80.18220 31884 ft 361 kts 269°
2026-05-05 21:17 42.63180 -80.25024 31877 ft 361 kts 270°
2026-05-05 21:18 42.63460 -80.31825 31864 ft 360 kts 270°
2026-05-05 21:18 42.63733 -80.38617 31861 ft 361 kts 270°
2026-05-05 21:19 42.64004 -80.45425 31859 ft 361 kts 269°
2026-05-05 21:19 42.64271 -80.52237 31855 ft 361 kts 269°
2026-05-05 21:20 42.64519 -80.59056 31870 ft 362 kts 269°
2026-05-05 21:20 42.64758 -80.65880 31869 ft 362 kts 269°
2026-05-05 21:21 42.64990 -80.72704 31863 ft 362 kts 269°
2026-05-05 21:21 42.65212 -80.79533 31850 ft 362 kts 269°
2026-05-05 21:22 42.65428 -80.86318 31833 ft 362 kts 269°
2026-05-05 21:22 42.65647 -80.93159 31853 ft 363 kts 269°
2026-05-05 21:23 42.65860 -81.00011 31853 ft 363 kts 269°
2026-05-05 21:23 42.66075 -81.06871 31859 ft 364 kts 269°
2026-05-05 21:24 42.66253 -81.12624 31859 ft 364 kts 269°
2026-05-05 21:24 42.66460 -81.19490 31859 ft 364 kts 269°
2026-05-05 21:25 42.66671 -81.26353 31866 ft 364 kts 271°
2026-05-05 21:25 42.67430 -81.33180 31882 ft 366 kts 275°
2026-05-05 21:26 42.68225 -81.39996 31878 ft 365 kts 275°
2026-05-05 21:26 42.69006 -81.46807 31879 ft 365 kts 275°
2026-05-05 21:27 42.69786 -81.53616 31877 ft 364 kts 275°
2026-05-05 21:27 42.70561 -81.60410 31880 ft 364 kts 275°
2026-05-05 21:28 42.71333 -81.67206 31894 ft 364 kts 275°
2026-05-05 21:28 42.72098 -81.73995 31896 ft 363 kts 275°
2026-05-05 21:29 42.72858 -81.80763 31896 ft 361 kts 275°
2026-05-05 21:29 42.73610 -81.87507 31899 ft 360 kts 275°
2026-05-05 21:30 42.74354 -81.94185 31890 ft 359 kts 274°
2026-05-05 21:30 42.75092 -82.00894 31880 ft 358 kts 274°
2026-05-05 21:31 42.75828 -82.07590 31877 ft 358 kts 274°
2026-05-05 21:31 42.76561 -82.14291 31867 ft 358 kts 274°
2026-05-05 21:32 42.77286 -82.20988 31865 ft 358 kts 274°
2026-05-05 21:32 42.78014 -82.27684 31863 ft 358 kts 274°
2026-05-05 21:33 42.78742 -82.34385 31864 ft 358 kts 274°
2026-05-05 21:33 42.79456 -82.41079 31880 ft 357 kts 274°
2026-05-05 21:34 42.80159 -82.47774 31872 ft 357 kts 274°
2026-05-05 21:34 42.80859 -82.54455 31866 ft 356 kts 274°
2026-05-05 21:35 42.81674 -82.61117 31865 ft 357 kts 276°
2026-05-05 21:35 42.82621 -82.67764 31857 ft 357 kts 276°
2026-05-05 21:36 42.83558 -82.74407 31850 ft 357 kts 276°
2026-05-05 21:36 42.84464 -82.81062 31863 ft 357 kts 276°
2026-05-05 21:37 42.85354 -82.87724 31859 ft 357 kts 275°
2026-05-05 21:37 42.86243 -82.94384 31858 ft 357 kts 275°
2026-05-05 21:38 42.87131 -83.01050 31855 ft 357 kts 275°
2026-05-05 21:38 42.88014 -83.07711 31853 ft 357 kts 275°
2026-05-05 21:39 42.88896 -83.14371 31853 ft 357 kts 275°
2026-05-05 21:39 42.89773 -83.21029 31867 ft 356 kts 276°
2026-05-05 21:40 42.90639 -83.27678 31861 ft 356 kts 276°
2026-05-05 21:40 42.90806 -83.34339 31855 ft 351 kts 266°
2026-05-05 21:41 42.90599 -83.40988 31853 ft 351 kts 266°
2026-05-05 21:41 42.90398 -83.47639 31849 ft 351 kts 266°
2026-05-05 21:42 42.90191 -83.54288 31879 ft 351 kts 266°
2026-05-05 21:42 42.89974 -83.60939 31871 ft 351 kts 266°
2026-05-05 21:43 42.89749 -83.67577 31863 ft 350 kts 266°
2026-05-05 21:43 42.89530 -83.74206 31858 ft 350 kts 266°
2026-05-05 21:44 42.89309 -83.80831 31854 ft 350 kts 266°
2026-05-05 21:44 42.89078 -83.87459 31852 ft 350 kts 266°
2026-05-05 21:45 42.88843 -83.94078 31868 ft 349 kts 266°
2026-05-05 21:45 42.88605 -84.00693 31864 ft 349 kts 266°
2026-05-05 21:46 42.88359 -84.07304 31865 ft 349 kts 266°
2026-05-05 21:46 42.88114 -84.13911 31862 ft 349 kts 266°
2026-05-05 21:47 42.87864 -84.20509 31860 ft 349 kts 266°
2026-05-05 21:47 42.87611 -84.27111 31841 ft 349 kts 266°
2026-05-05 21:48 42.87358 -84.33668 31846 ft 348 kts 266°
2026-05-05 21:48 42.87095 -84.40261 31866 ft 348 kts 266°
2026-05-05 21:49 42.86834 -84.46838 31871 ft 347 kts 266°
2026-05-05 21:49 42.86570 -84.53411 31874 ft 347 kts 266°
2026-05-05 21:50 42.86302 -84.59985 31875 ft 347 kts 266°
2026-05-05 21:50 42.86028 -84.66557 31875 ft 347 kts 266°
2026-05-05 21:51 42.85750 -84.73122 31882 ft 346 kts 265°
2026-05-05 21:51 42.85471 -84.79667 31881 ft 346 kts 265°
2026-05-05 21:52 42.85038 -84.89471 31879 ft 345 kts 265°
2026-05-05 21:53 42.84606 -84.95983 31877 ft 345 kts 262°
2026-05-05 21:53 42.83868 -85.02626 31841 ft 364 kts 261°
2026-05-05 21:53 42.83462 -85.06061 31666 ft 370 kts 261°
2026-05-05 21:54 42.83062 -85.09526 31358 ft 370 kts 261°
2026-05-05 21:54 42.82673 -85.12982 31063 ft 369 kts 261°
2026-05-05 21:54 42.82295 -85.16432 30765 ft 368 kts 261°
2026-05-05 21:54 42.81923 -85.19880 30469 ft 367 kts 261°
2026-05-05 21:55 42.81556 -85.23314 30185 ft 366 kts 260°
2026-05-05 21:55 42.81189 -85.26742 29883 ft 365 kts 260°
2026-05-05 21:55 42.80822 -85.30159 29547 ft 364 kts 260°
2026-05-05 21:55 42.80452 -85.33564 29212 ft 363 kts 260°
2026-05-05 21:56 42.80081 -85.36946 28877 ft 361 kts 260°
2026-05-05 21:56 42.79708 -85.40326 28548 ft 360 kts 260°
2026-05-05 21:56 42.79336 -85.43682 28248 ft 358 kts 260°
2026-05-05 21:56 42.78965 -85.47032 27930 ft 357 kts 260°
2026-05-05 21:57 42.78558 -85.50353 27608 ft 355 kts 256°
2026-05-05 21:57 42.77994 -85.53612 27294 ft 353 kts 256°
2026-05-05 21:57 42.77421 -85.56813 26987 ft 352 kts 256°
2026-05-05 21:57 42.76836 -85.60037 26681 ft 350 kts 255°
2026-05-05 21:58 42.76254 -85.63248 26377 ft 349 kts 255°
2026-05-05 21:58 42.75674 -85.66449 26062 ft 347 kts 255°
2026-05-05 21:58 42.75100 -85.69633 25741 ft 346 kts 255°
2026-05-05 21:58 42.74530 -85.72806 25422 ft 345 kts 255°
2026-05-05 21:59 42.73961 -85.75964 25107 ft 343 kts 255°
2026-05-05 21:59 42.73391 -85.79107 24808 ft 342 kts 255°
2026-05-05 21:59 42.72824 -85.82240 24500 ft 341 kts 255°
2026-05-05 21:59 42.72257 -85.85367 24196 ft 339 kts 255°
2026-05-05 22:00 42.71690 -85.88473 23895 ft 338 kts 255°
2026-05-05 22:00 42.71124 -85.91569 23595 ft 337 kts 255°
2026-05-05 22:00 42.70564 -85.94650 23263 ft 335 kts 255°
2026-05-05 22:00 42.70003 -85.97724 22912 ft 334 kts 255°
2026-05-05 22:01 42.69444 -86.00777 22567 ft 333 kts 255°
2026-05-05 22:01 42.68883 -86.03826 22222 ft 331 kts 255°
2026-05-05 22:01 42.68327 -86.06856 21872 ft 330 kts 255°
2026-05-05 22:01 42.67774 -86.09877 21533 ft 329 kts 255°
2026-05-05 22:02 42.67217 -86.12893 21201 ft 328 kts 255°
2026-05-05 22:02 42.66662 -86.15893 20867 ft 327 kts 256°
2026-05-05 22:02 42.66107 -86.18887 20554 ft 326 kts 255°
2026-05-05 22:02 42.65555 -86.21867 20227 ft 326 kts 256°
2026-05-05 22:03 42.65003 -86.24847 19941 ft 324 kts 256°
2026-05-05 22:03 42.64452 -86.27814 19889 ft 323 kts 256°
2026-05-05 22:03 42.63903 -86.30763 19894 ft 322 kts 256°
2026-05-05 22:03 42.63355 -86.33705 19896 ft 321 kts 256°
2026-05-05 22:04 42.62807 -86.36645 19889 ft 321 kts 256°
2026-05-05 22:04 42.62262 -86.39565 19535 ft 316 kts 256°
2026-05-05 22:04 42.61736 -86.42394 19458 ft 303 kts 256°
2026-05-05 22:04 42.61218 -86.45161 18906 ft 306 kts 256°
2026-05-05 22:05 42.60687 -86.47982 18206 ft 311 kts 256°
2026-05-05 22:05 42.60150 -86.50842 17496 ft 313 kts 256°
2026-05-05 22:05 42.59616 -86.53678 17146 ft 306 kts 256°
2026-05-05 22:05 42.59098 -86.56434 16851 ft 297 kts 256°
2026-05-05 22:06 42.58592 -86.59121 16567 ft 292 kts 256°
2026-05-05 22:06 42.58090 -86.61781 16283 ft 290 kts 256°
2026-05-05 22:06 42.57587 -86.64423 15998 ft 289 kts 256°
2026-05-05 22:06 42.57088 -86.67055 15714 ft 288 kts 256°
2026-05-05 22:07 42.56591 -86.69677 15412 ft 287 kts 255°
2026-05-05 22:07 42.56082 -86.72298 15151 ft 288 kts 253°
2026-05-05 22:07 42.55636 -86.73992 14969 ft 288 kts 250°
2026-05-05 22:07 42.54718 -86.77364 14596 ft 287 kts 250°
2026-05-05 22:08 42.54033 -86.79903 14314 ft 287 kts 250°
2026-05-05 22:08 42.53350 -86.82442 14036 ft 286 kts 250°
2026-05-05 22:08 42.52668 -86.84969 13755 ft 285 kts 250°
2026-05-05 22:08 42.52206 -86.86674 13552 ft 285 kts 250°
2026-05-05 22:09 42.51525 -86.89189 13264 ft 284 kts 250°
2026-05-05 22:09 42.50843 -86.91700 12984 ft 283 kts 250°
2026-05-05 22:09 42.50164 -86.94197 12706 ft 282 kts 250°
2026-05-05 22:09 42.49486 -86.96687 12428 ft 280 kts 250°
2026-05-05 22:10 42.48812 -86.99155 12157 ft 279 kts 250°
2026-05-05 22:10 42.48139 -87.01612 11886 ft 278 kts 249°
2026-05-05 22:10 42.47133 -87.03833 11604 ft 281 kts 228°
2026-05-05 22:10 42.45468 -87.05255 11333 ft 290 kts 208°
2026-05-05 22:11 42.43591 -87.06181 11062 ft 291 kts 205°
2026-05-05 22:11 42.41676 -87.07071 10791 ft 291 kts 205°
2026-05-05 22:11 42.39766 -87.07957 10523 ft 290 kts 205°
2026-05-05 22:11 42.37870 -87.08835 10255 ft 285 kts 205°
2026-05-05 22:12 42.36015 -87.09692 9964 ft 279 kts 205°
2026-05-05 22:12 42.34197 -87.10541 9690 ft 274 kts 205°
2026-05-05 22:12 42.32423 -87.11364 9522 ft 266 kts 205°
2026-05-05 22:12 42.30686 -87.12167 9212 ft 263 kts 205°
2026-05-05 22:13 42.28937 -87.12978 8825 ft 262 kts 205°
2026-05-05 22:13 42.27233 -87.13773 8449 ft 263 kts 205°
2026-05-05 22:13 42.25505 -87.14581 8073 ft 263 kts 205°
2026-05-05 22:13 42.23774 -87.15395 7685 ft 263 kts 205°
2026-05-05 22:14 42.22043 -87.16214 7329 ft 264 kts 205°
2026-05-05 22:14 42.20313 -87.17039 6964 ft 265 kts 205°
2026-05-05 22:14 42.18573 -87.17872 6600 ft 265 kts 205°
2026-05-05 22:14 42.16834 -87.18710 6244 ft 266 kts 205°
2026-05-05 22:15 42.15099 -87.19552 6017 ft 264 kts 205°
2026-05-05 22:15 42.13356 -87.20400 6016 ft 267 kts 205°
2026-05-05 22:15 42.11605 -87.21255 6020 ft 268 kts 205°
2026-05-05 22:15 42.09850 -87.22110 6023 ft 268 kts 205°
2026-05-05 22:16 42.08098 -87.22966 6018 ft 268 kts 205°
2026-05-05 22:16 42.06346 -87.23823 6018 ft 268 kts 205°
2026-05-05 22:16 42.04592 -87.24681 6023 ft 268 kts 205°
2026-05-05 22:16 42.02841 -87.25540 6020 ft 268 kts 205°
2026-05-05 22:17 42.01085 -87.26400 6017 ft 268 kts 205°
2026-05-05 22:17 41.99343 -87.27286 6014 ft 266 kts 211°
2026-05-05 22:17 41.97944 -87.28786 6020 ft 254 kts 238°
2026-05-05 22:17 41.97020 -87.30796 6019 ft 253 kts 245°
2026-05-05 22:18 41.96181 -87.32853 6012 ft 246 kts 245°
2026-05-05 22:18 41.95457 -87.34848 6007 ft 228 kts 257°
2026-05-05 22:18 41.95415 -87.36859 6017 ft 208 kts 281°
2026-05-05 22:18 41.95723 -87.38686 6013 ft 194 kts 285°
2026-05-05 22:19 41.96060 -87.40370 6048 ft 178 kts 287°
2026-05-05 22:19 41.96345 -87.41903 6013 ft 162 kts 279°
2026-05-05 22:19 41.96457 -87.43334 6003 ft 147 kts 275°
2026-05-05 22:19 41.96506 -87.44781 6017 ft 158 kts 273°
2026-05-05 22:20 41.96528 -87.46174 6027 ft 144 kts 272°
2026-05-05 22:20 41.96539 -87.47512 6021 ft 143 kts 272°
2026-05-05 22:20 41.96546 -87.48843 6019 ft 142 kts 272°
2026-05-05 22:20 41.96551 -87.50175 6017 ft 142 kts 272°
2026-05-05 22:21 41.96555 -87.51561 6023 ft 153 kts 271°
2026-05-05 22:21 41.96559 -87.53002 6021 ft 155 kts 271°
2026-05-05 22:21 41.96561 -87.54453 6018 ft 155 kts 271°
2026-05-05 22:21 41.96564 -87.55906 6016 ft 156 kts 271°
2026-05-05 22:22 41.96567 -87.57359 6015 ft 156 kts 271°
2026-05-05 22:22 41.96569 -87.58813 6015 ft 156 kts 271°
2026-05-05 22:22 41.96582 -87.60275 5829 ft 156 kts 272°
2026-05-05 22:22 41.96579 -87.61730 5532 ft 155 kts 271°
2026-05-05 22:23 41.96569 -87.63180 5263 ft 154 kts 271°
2026-05-05 22:23 41.96566 -87.64568 4979 ft 144 kts 272°
2026-05-05 22:23 41.96582 -87.65883 4732 ft 137 kts 272°
2026-05-05 22:23 41.96612 -87.67154 4497 ft 136 kts 273°
2026-05-05 22:24 41.96620 -87.68415 4197 ft 135 kts 270°
2026-05-05 22:24 41.96581 -87.69681 3836 ft 136 kts 269°
2026-05-05 22:24 41.96579 -87.70945 3509 ft 135 kts 272°
2026-05-05 22:24 41.96580 -87.72200 3259 ft 135 kts 272°
2026-05-05 22:25 41.96582 -87.73467 3038 ft 136 kts 272°
2026-05-05 22:25 41.96582 -87.74744 2853 ft 137 kts 273°
2026-05-05 22:25 41.96582 -87.76019 2660 ft 137 kts 272°
2026-05-05 22:25 41.96582 -87.77280 2475 ft 133 kts 272°
2026-05-05 22:26 41.96582 -87.78514 2285 ft 132 kts 272°
2026-05-05 22:26 41.96582 -87.79757 2110 ft 134 kts 272°
2026-05-05 22:26 41.96582 -87.81017 1928 ft 134 kts 273°
2026-05-05 22:26 41.96581 -87.82266 1746 ft 133 kts 272°
2026-05-05 22:27 41.96580 -87.83486 1557 ft 129 kts 271°
2026-05-05 22:27 41.96576 -87.84702 1365 ft 131 kts 271°
2026-05-05 22:27 41.96567 -87.85913 1147 ft 128 kts 272°
2026-05-05 22:27 41.96577 -87.87105 951 ft 128 kts 272°
2026-05-05 22:28 41.96575 -87.88319 802 ft 131 kts 272°
2026-05-05 22:28 41.96575 -87.89537 663 ft 126 kts 270°
2026-05-05 22:28 41.96577 -87.90425 667 ft 53 kts 270°
2026-05-05 22:28 41.96576 -87.90761 669 ft 29 kts 270°
2026-05-05 22:29 41.96576 -87.90994 670 ft 23 kts 270°
2026-05-05 22:29 41.96586 -87.91214 668 ft 25 kts 282°
2026-05-05 22:29 41.96640 -87.91438 671 ft 22 kts 298°
2026-05-05 22:29 41.96657 -87.91478 672 ft 2 kts 300°
2026-05-05 22:30 41.96660 -87.91484 673 ft 0 kts 300°
2026-05-05 22:30 41.96661 -87.91488 673 ft 1 kts 301°
2026-05-05 22:30 41.96679 -87.91504 673 ft 5 kts 341°
2026-05-05 22:30 41.96727 -87.91478 674 ft 10 kts 50°
2026-05-05 22:31 41.96739 -87.91362 675 ft 16 kts 90°
2026-05-05 22:31 41.96739 -87.91177 672 ft 23 kts 89°
2026-05-05 22:31 41.96740 -87.90942 669 ft 27 kts 90°
2026-05-05 22:31 41.96740 -87.90689 666 ft 22 kts 90°
2026-05-05 22:32 41.96740 -87.90466 666 ft 25 kts 90°
2026-05-05 22:32 41.96740 -87.90228 666 ft 27 kts 90°
2026-05-05 22:32 41.96741 -87.90000 665 ft 23 kts 90°
2026-05-05 22:32 41.96741 -87.89785 667 ft 18 kts 90°
2026-05-05 22:33 41.96742 -87.89599 664 ft 22 kts 89°
2026-05-05 22:33 41.96743 -87.89389 664 ft 23 kts 89°
2026-05-05 22:33 41.96743 -87.89218 660 ft 20 kts 84°
2026-05-05 22:33 41.96784 -87.89116 659 ft 8 kts 56°
2026-05-05 22:34 41.96822 -87.89073 659 ft 5 kts 20°
2026-05-05 22:34 41.96860 -87.89069 659 ft 6 kts 358°
2026-05-05 22:34 41.96906 -87.89069 660 ft 7 kts
2026-05-05 22:34 41.96959 -87.89069 661 ft 9 kts 359°
2026-05-05 22:35 41.97025 -87.89071 660 ft 10 kts 359°
2026-05-05 22:35 41.97048 -87.89071 660 ft 2 kts 359°
2026-05-05 22:35 41.97079 -87.89070 659 ft 6 kts
2026-05-05 22:35 41.97135 -87.89069 659 ft 10 kts
2026-05-05 22:36 41.97195 -87.89111 660 ft 10 kts 284°
2026-05-05 22:36 41.97196 -87.89210 662 ft 11 kts 270°
2026-05-05 22:36 41.97196 -87.89309 665 ft 11 kts 270°
2026-05-05 22:36 41.97196 -87.89409 666 ft 12 kts 270°
2026-05-05 22:37 41.97199 -87.89531 665 ft 14 kts 280°
2026-05-05 22:37 41.97221 -87.89660 666 ft 15 kts 246°
2026-05-05 22:37 41.97172 -87.89786 669 ft 15 kts 244°
2026-05-05 22:37 41.97140 -87.89916 670 ft 16 kts 263°
2026-05-05 22:38 41.97138 -87.90082 667 ft 20 kts 269°
2026-05-05 22:38 41.97138 -87.90262 667 ft 11 kts 270°
2026-05-05 22:38 41.97139 -87.90379 667 ft 14 kts 271°
2026-05-05 22:38 41.97145 -87.90527 665 ft 18 kts 274°
2026-05-05 22:39 41.97158 -87.90699 667 ft 18 kts 281°
2026-05-05 22:39 41.97186 -87.90775 669 ft 8 kts 322°
2026-05-05 22:39 41.97240 -87.90769 669 ft 9 kts
2026-05-05 22:39 41.97295 -87.90825 669 ft 11 kts 313°
2026-05-05 22:40 41.97354 -87.90905 670 ft 13 kts 317°
2026-05-05 22:40 41.97422 -87.90980 671 ft 12 kts 323°
2026-05-05 22:40 41.97487 -87.91054 669 ft 12 kts 331°
2026-05-05 22:40 41.97539 -87.90988 668 ft 12 kts 69°
2026-05-05 22:41 41.97574 -87.90896 672 ft 9 kts 37°
2026-05-05 22:41 41.97645 -87.90874 670 ft 12 kts 13°
2026-05-05 22:41 41.97684 -87.90800 670 ft 6 kts 72°
2026-05-05 22:41 41.97686 -87.90791 670 ft 0 kts 72°